Location: Terra Rouge Observatory
(46.0000°N, 62.7500°W)
Time: 01:52:48
(UTC-03:00)

Daily predictions for brighter satellites

Satellite Brightness Start Highest point End
(mag) Time Altitude Azimuth Time Altitude Azimuth Time Altitude Azimuth
SL-16 R/B 3.4 00:04:07 10° NNW 00:09:18 34° NE 00:12:19 21° ESE
Cosmos 389 Rocket 3.3 00:06:00 10° N 00:09:00 42° NE 00:09:00 42° NE
Cosmos 1269 Rocket 4.0 00:08:20 52° SSE 00:09:23 65° ESE 00:14:39 10° NNE
Cosmos 1697 Rocket 2.8 00:05:13 10° NNW 00:10:45 61° WSW 00:12:12 46° SSW
ATLAS CENTAUR R/B 3.5 00:10:58 10° N 00:13:39 18° NE 00:15:30 13° ENE
CZ-4B R/B 4.2 00:12:40 10° N 00:17:28 48° WNW 00:19:54 27° SW
Cosmos 1271 Rocket 2.9 00:13:53 10° NNW 00:17:42 61° W 00:17:42 61° W
Cosmos-2242 4.0 00:15:11 10° N 00:19:11 35° ENE 00:19:39 34° E
Iridium 2 4.3 00:16:06 10° NNW 00:19:46 46° W 00:19:52 46° W
COSMOS 2487 4.5 00:19:35 20° W 00:20:55 25° WNW 00:23:55 10° N
Cosmos 158 Rocket 3.9 00:19:46 55° S 00:20:56 78° ESE 00:26:20 10° NNE
Cosmos 1821 Rocket 4.0 00:16:44 10° N 00:23:01 77° E 00:25:05 45° SSE
Cosmos 1420 Rocket 4.5 00:20:04 10° NNW 00:25:07 47° WSW 00:26:07 42° SW
Lacrosse 5 rocket 3.5 00:21:27 10° NW 00:25:29 28° NNE 00:29:31 10° E
Cosmos 1048 Rocket 3.9 00:30:12 51° SSW 00:31:30 81° WNW 00:36:42 10° NNE
Cosmos 1833 Rocket 3.2 00:28:30 25° SW 00:31:37 55° WNW 00:37:10 10° NNE
Terra 4.1 00:32:52 12° WSW 00:34:34 14° W 00:37:04 10° WNW
Cosmos 1110 Rocket 4.1 00:31:36 10° NNW 00:36:53 70° ENE 00:38:06 51° SE
Lacrosse 5 4.1 00:38:59 12° E 00:38:59 12° E 00:39:46 10° E
Cosmos 1758 3.5 00:33:10 10° NNW 00:37:03 60° W 00:37:03 60° W
Cosmos 2098 Rocket 3.9 00:33:51 10° N 00:37:42 40° E 00:38:19 38° E
Cosmos 1331 Rocket 4.1 00:33:49 10° NNW 00:38:59 64° ENE 00:40:12 49° ESE
Cosmos 1733 3.4 00:36:47 10° N 00:40:20 66° NE 00:40:20 66° NE
Cosmos 1758 Rocket 3.3 00:42:07 83° S 00:42:17 90° SW 00:46:39 10° N
Cosmos 1605 Rocket 4.1 00:39:23 10° N 00:45:26 62° ENE 00:47:20 42° SE
Cosmos 1535 Rocket 4.4 00:43:04 10° NNW 00:49:10 74° W 00:50:54 48° SSW
Cosmos 2251 Rocket 4.0 00:48:50 44° ESE 00:49:23 45° ESE 00:54:30 10° NNE
Cosmos 1470 2.8 00:47:44 10° N 00:51:33 80° NNW 00:51:33 80° NNW
SAR-Lupe-2 4.4 00:52:44 43° ENE 00:52:44 43° ENE 00:55:57 10° N
ISS -2.3 00:52:42 24° WNW 00:54:03 36° NNW 00:57:09 10° NE
Cosmos 2360 Rocket 3.6 00:50:42 10° NNW 00:55:49 33° NE 00:59:32 16° ESE
Meteor 1-16 Rocket 4.4 00:50:39 10° N 00:55:57 59° ENE 00:57:18 45° SE
Cosmos 1980 Rocket 2.7 00:51:41 10° NW 00:57:02 43° WSW 00:57:51 41° SW
Landsat 5 4.4 00:58:18 38° E 00:59:10 42° ENE 01:03:28 10° N
ALOS 2 2.9 01:00:22 52° WSW 01:00:28 52° W 01:04:47 10° NNW
Timation 2 Rocket 4.5 00:58:48 26° SW 01:02:19 55° WNW 01:08:22 10° NNE
Cosmos 2322 Rocket 2.2 00:59:19 10° NNW 01:05:03 83° ENE 01:06:37 50° SE
ARGOS Delta rocket 4.2 01:00:12 10° N 01:05:23 68° WNW 01:06:42 49° SW
Cosmos 1953 Rocket 4.1 01:07:55 45° WSW 01:08:29 48° WNW 01:12:50 10° N
USA 267 3.7 01:04:42 10° NE 01:11:08 62° NNW 01:17:33 10° WSW
Cosmos 1707 2.8 01:15:16 71° NNW 01:15:16 71° NNW 01:18:50 10° N
CZ-4C R/B 3.4 01:16:06 67° NNW 01:16:06 67° NNW 01:19:24 10° NNW
USA 32 3.9 01:16:51 60° SSW 01:17:49 84° W 01:23:07 10° N
NOSS 3-1 (C) 4.0 01:14:03 10° NW 01:21:34 84° SW 01:25:53 32° SSE
Cosmos 1378 3.3 01:22:14 68° NNE 01:22:14 68° NNE 01:25:33 10° N
Cosmos 972 4.5 01:17:42 10° NNW 01:23:27 89° E 01:24:36 57° SSE
CZ-2C R/B 3.9 01:22:49 35° WSW 01:23:42 37° W 01:28:52 10° NNW
SeaSat 1 3.9 01:29:44 23° WSW 01:29:44 23° WSW 01:33:22 10° NW
Cosmos 2082 Rocket 4.2 01:25:46 10° W 01:30:08 22° NW 01:34:31 10° N
Cosmos 1459 Rocket 4.4 01:26:39 10° N 01:32:56 59° ENE 01:35:36 34° SE
Meteor 2-1 Rocket 4.5 01:27:44 10° N 01:33:37 69° ENE 01:35:38 42° SSE
Cosmos 1953 4.5 01:32:27 10° NW 01:34:56 16° W 01:34:56 16° W
Meteor 2-15 4.3 01:34:29 49° SSW 01:36:15 86° W 01:42:21 10° N
CZ-4B R/B 2.5 01:37:24 38° NNW 01:37:24 38° NNW 01:39:30 10° NNW
Helios 1B 4.4 01:37:27 74° SW 01:37:37 76° WSW 01:41:58 10° NNW
Geosat 4.2 01:33:47 10° NNE 01:38:47 67° WNW 01:40:11 46° WSW
Cosmos 1689 Rocket 3.5 01:41:22 38° NNW 01:41:22 38° NNW 01:43:28 10° NNW
Cosmos 2219 Rocket 4.3 01:37:37 10° N 01:42:09 24° NE 01:46:40 10° E
Cosmos 2100 Rocket 4.0 01:36:21 10° N 01:42:31 73° E 01:44:48 41° SSE
CZ-2C R/B 3.9 01:37:34 10° N 01:42:38 36° WNW 01:44:58 25° WSW
Cosmos 2061 Rocket 4.2 01:39:33 10° N 01:45:45 66° E 01:48:19 36° SSE
USA 234 3.4 01:45:40 43° S 01:47:07 50° SW 01:53:27 10° WNW
Cosmos 2016 Rocket 4.5 01:42:26 10° N 01:48:44 56° ENE 01:51:51 30° SE
Meteor 2-5 Rocket 4.1 01:47:56 41° SW 01:49:47 59° WNW 01:55:41 10° N
ATLAS 2AS CENTAUR R/B 4.1 01:44:17 10° NW 01:52:01 44° NE 01:59:19 10° ESE
NOSS 3-1 (A) 4.0 01:44:33 10° NW 01:52:06 74° SW 01:56:43 30° SSE
ATLAS CENTAUR R/B 2.1 01:49:20 10° NW 01:51:45 36° WNW 01:51:45 36° WNW
SL-16 R/B 2.6 01:48:10 10° NW 01:53:30 43° WSW 01:54:10 41° SW
Cosmos 1340 Rocket 3.7 01:54:52 37° E 01:55:03 37° E 01:58:42 10° NNE
Meteor 2-15 Rocket 4.4 01:54:54 45° SSW 01:56:51 72° W 02:02:57 10° N
H-2A R/B 2.3 01:55:54 10° NNE 02:00:05 87° E 02:00:29 73° S
Cosmos 1674 3.6 02:02:54 37° ESE 02:03:12 38° E 02:06:49 10° NNE
Lacrosse 5 rocket 1.5 02:00:37 10° NW 02:05:18 88° NE 02:06:52 42° SE
Cosmos 2237 4.3 02:06:49 10° NNW 02:12:32 74° ENE 02:15:45 27° SE
Cosmos 2322 3.6 02:08:09 10° NNW 02:13:51 83° WSW 02:16:00 40° SSE
Cosmos 2123 Rocket 4.4 02:11:46 31° SSE 02:14:34 55° E 02:20:35 10° NNE
Cosmos 2221 2.4 02:13:49 10° NNW 02:18:05 69° W 02:18:30 64° SW
Lacrosse 5 1.8 02:18:10 53° SSW 02:19:20 75° SE 02:24:25 10° NE
Cosmos 1833 4.1 02:17:48 46° SSW 02:19:36 90° WNW 02:25:19 10° NNE
Helios 1A Rocket 3.1 02:18:47 10° NNE 02:22:56 62° ESE 02:23:38 52° SSE
COSMOS 2428 2.9 02:20:09 10° NNW 02:25:55 71° ENE 02:30:03 19° SE
In-Cosmos 22 4.2 02:25:11 43° SW 02:26:49 64° WNW 02:32:16 10° N
Cosmos 2219 3.8 02:28:53 32° SSE 02:30:57 47° ESE 02:36:18 10° NE
ISS -1.9 02:28:06 10° WNW 02:31:06 31° N 02:34:03 10° ENE
Cosmos 2228 Rocket 4.1 02:28:46 10° N 02:33:01 42° ENE 02:35:31 22° SE
Cosmos 2084 Rocket 3.1 02:33:07 67° SSW 02:33:37 86° SE 02:37:34 10° NE
Cosmos 1726 3.1 02:30:36 10° N 02:34:15 44° ENE 02:35:30 31° SE
Cosmos 2333 4.3 02:32:07 10° NNW 02:37:54 78° ENE 02:42:11 18° SSE
BREEZE-M DEB (TANK) 4.1 02:35:21 10° W 02:39:16 68° N 02:57:12 10° E
Cosmos 2360 Rocket 2.6 02:34:35 10° NW 02:39:57 45° WSW 02:41:15 38° SW
Cosmos 1725 Rocket 4.0 02:33:52 10° N 02:40:14 88° W 02:43:37 30° S
Cosmos 1190 Rocket 4.5 02:38:13 33° SSE 02:40:18 52° ESE 02:45:27 10° NNE
Cosmos 1992 Rocket 4.1 02:36:38 10° NNW 02:41:46 59° WSW 02:43:18 41° SSW
SL-08 R/B 4.5 02:41:42 10° NNW 02:47:44 66° W 02:50:31 33° SSW
Cosmos 1328 Rocket 3.9 02:43:39 10° N 02:48:06 64° E 02:50:14 29° SSE
Cosmos 2322 Rocket 3.9 02:45:03 10° WNW 02:48:19 16° W 02:48:24 16° W
Cosmos 1076 Rocket 3.7 02:47:53 45° SW 02:48:50 57° WNW 02:53:07 10° N
Cosmos 1242 Rocket 2.4 02:45:44 10° N 02:49:17 80° ENE 02:49:55 57° SSE
Cosmos 1908 3.7 02:45:35 10° NNW 02:49:21 44° W 02:49:36 44° WSW
PSLV R/B 4.0 02:51:31 50° SW 02:52:11 58° WSW 02:56:13 10° NNW
SL-08 R/B 3.5 02:52:19 26° SSE 02:55:11 79° ENE 03:00:10 10° NNW
PSLV R/B 4.3 02:55:07 10° N 02:59:07 39° WNW 03:00:18 32° WSW
Cosmos 2333 Rocket 2.6 02:53:43 10° NNW 02:59:25 64° ENE 03:05:03 10° SE
Cosmos 1356 Rocket 3.2 02:59:01 48° SSW 03:00:06 86° W 03:04:11 10° N
Meteor 2-10 4.2 02:55:07 10° N 03:00:11 66° ENE 03:04:00 18° SSE
Resurs 1-4 Rocket 3.3 02:56:53 10° NNE 03:01:44 35° E 03:05:36 15° SSE
CZ-2D R/B 3.2 03:00:54 10° NNE 03:05:42 36° E 03:09:31 15° SSE
AQUA 4.0 03:01:07 10° NNE 03:05:52 66° ESE 03:08:15 29° S
Cosmos 1151 Rocket 3.6 03:01:46 10° N 03:06:02 54° ENE 03:09:09 17° SSE
Cosmos 2151 3.9 03:06:51 21° SSE 03:09:12 42° E 03:13:12 10° NNE
SL-14 R/B 3.5 03:07:45 35° S 03:09:20 70° E 03:13:24 10° NNE
SL-16 R/B 2.7 03:07:45 10° SSE 03:13:53 72° ENE 03:20:04 10° NNW
ADEOS 4.5 03:12:17 10° NNE 03:17:15 42° E 03:21:16 15° SSE
Cosmos 1980 4.0 03:13:06 10° NNW 03:18:47 68° ENE 03:24:27 10° SE
UNK 4.0 03:16:33 14° SSE 03:20:32 69° ENE 03:25:07 10° N
Cosmos 2297 Rocket 3.5 03:17:08 13° SSE 03:21:20 32° ESE 03:26:17 10° NE
SL-8 R/B 4.2 03:21:51 30° SSW 03:23:39 44° SSE 03:28:12 10° ENE
IRS-1C 4.1 03:18:29 10° NNE 03:23:51 83° ESE 03:27:13 24° SSW
Cosmos 2219 Rocket 2.1 03:20:59 10° NNW 03:26:40 69° WSW 03:32:17 10° SSE
Cosmos 1408 Rocket 4.5 03:26:02 26° WSW 03:27:37 34° WNW 03:31:38 10° N
NOSS 0 Rocket 3.9 03:24:10 10° NNW 03:30:23 81° WSW 03:36:35 10° SSE
Cosmos 1500 Rocket 3.5 03:30:15 27° SSW 03:32:38 83° W 03:37:05 10° N
COBE Rocket 4.0 03:28:31 10° NNE 03:33:13 65° E 03:36:33 19° S
ERBS 3.3 03:34:06 27° S 03:35:10 35° SE 03:38:18 10° ENE
SL-16 R/B 3.6 03:31:03 10° NNW 03:36:26 41° NE 03:41:45 10° SE
Cosmos 2237 Rocket 2.2 03:33:12 10° NNW 03:38:53 88° ENE 03:44:30 10° SSE
Meteor 2-12 Rocket 4.5 03:33:03 10° NNW 03:39:10 68° W 03:44:17 15° S
Cosmos 1328 4.2 03:39:22 28° SW 03:41:04 47° WNW 03:44:56 10° N
Cosmos 1626 2.5 03:40:34 19° S 03:43:05 61° E 03:46:48 10° NNE
ATLAS 2AS CENTAUR R/B 3.0 03:35:33 10° NW 03:43:26 61° WSW 03:50:44 10° SSE
Aureole 2 Rocket 2.8 03:39:55 10° NNW 03:43:52 84° ENE 03:48:00 10° SSE
Lacrosse 5 rocket 3.4 03:41:04 10° W 03:42:28 15° W 03:42:28 15° W
Cosmos 1140 Rocket 3.6 03:40:45 20° S 03:44:26 74° ESE 03:49:40 10° NNE
NOSS 2-1 (D) 4.2 03:42:22 20° S 03:44:34 40° ESE 03:48:33 10° NE
NOSS 2-1 (C) 4.2 03:42:32 20° S 03:44:44 39° ESE 03:48:42 10° NE
GPS 2-04 Rocket1 4.3 03:45:14 19° S 03:45:31 19° S 03:48:35 10° SE
Cosmos 1515 Rocket 4.1 03:45:01 10° NNW 03:49:09 40° W 03:51:31 22° SSW
Cosmos 1570 Rocket 4.4 03:44:29 10° NNW 03:49:51 69° ENE 03:55:11 10° SSE
Cosmos 1300 3.8 03:47:53 10° NNW 03:51:09 27° W 03:52:25 22° WSW
NOSS 3-3 (A) 4.0 03:48:07 20° SSW 03:52:38 84° SE 03:59:25 10° NE
Cosmos 1743 Rocket 4.3 03:50:22 22° SW 03:52:44 38° WNW 03:56:55 10° N
NOSS 3-3 (C) 4.1 03:48:12 20° SSW 03:52:45 84° SE 03:59:32 10° NE
Cosmos 614 Rocket 4.2 03:48:59 17° S 03:53:02 72° ESE 03:58:17 10° NNE
Cosmos 2034 Rocket 4.3 03:47:40 10° N 03:54:02 73° E 04:00:23 10° SSE
NPP 4.3 03:50:09 10° N 03:55:10 41° WNW 03:58:49 18° SW
Cosmos 2227 Rocket 2.3 03:53:34 17° SSW 03:58:03 78° ESE 04:03:44 10° NNE
ARIANE 5 R/B 2.5 03:54:20 10° NNE 03:59:29 83° WNW 04:03:43 15° SSW
ADEOS Rocket 3.6 03:53:10 10° N 04:00:23 74° WNW 04:07:20 13° SSW
Lacrosse 5 3.2 03:58:05 10° W 04:02:43 34° NNW 04:07:21 10° NE
Cosmos 1954 Rocket 4.2 04:00:23 18° SW 04:04:17 63° WNW 04:09:32 10° NNE
NOSS 2-1 (E) 3.7 04:04:37 17° SSW 04:07:23 61° SE 04:11:45 10° NE
Cosmos 407 Rocket 4.4 04:04:00 16° WSW 04:07:38 35° WNW 04:12:22 10° N
ISS -3.7 04:04:38 10° WNW 04:07:56 78° NNE 04:11:11 10° ESE
Cosmos 1726 4.1 04:07:11 10° NW 04:09:09 14° W 04:10:06 13° WSW
COSMOS 2428 4.1 04:05:38 10° NW 04:09:34 19° W 04:12:00 15° SW
Meteor 1-11 4.5 04:06:11 16° SSW 04:10:42 55° WNW 04:16:22 10° N
USA 161 1.7 04:13:04 10° SSE 04:15:04 45° ENE 04:17:01 10° N
Cosmos 2219 4.3 04:10:48 12° WSW 04:15:17 31° NW 04:20:17 10° N
Cosmos 1869 3.7 04:13:00 10° N 04:17:04 69° E 04:21:04 10° SSE
Cosmos 1633 Rocket 3.9 04:13:11 10° SSE 04:17:24 50° E 04:21:39 10° NNE
Cosmos 2058 3.6 04:14:39 16° SW 04:17:32 39° WNW 04:21:25 10° N
Sich 1 3.3 04:20:25 10° S 04:24:48 72° E 04:29:12 10° NNE
Cosmos 2082 3.7 04:20:13 12° SSW 04:25:22 78° WNW 04:31:02 10° NNE
Cosmos 2242 Rocket 4.2 04:26:42 10° N 04:31:08 60° E 04:35:34 10° SSE
Cosmos 2208 Rocket 4.1 04:27:57 10° NNW 04:33:03 58° WSW 04:38:09 10° S
Cosmos 1455 2.9 04:31:36 10° NNW 04:35:11 36° W 04:38:45 10° SSW
CZ-2D R/B 3.4 04:33:50 10° N 04:37:49 66° WNW 04:41:50 10° SSW
Cosmos 1703 4.4 04:35:50 11° SW 04:39:01 28° WNW 04:42:28 10° NNW
Resurs 1-4 Rocket 3.0 04:36:45 10° N 04:41:32 35° WNW 04:46:19 10° SW
Lacrosse 4 Rocket 2.9 04:38:25 10° S 04:42:04 32° ESE 04:45:49 10° NE
Cosmos 2333 Rocket 3.4 04:38:57 10° NW 04:43:09 21° W 04:47:20 10° SSW
MOZ.5/SAFIR/RUBIN 5/SL-8 4.2 04:38:53 10° S 04:43:24 44° W 04:47:59 10° NNW
CZ-2D R/B 3.0 04:41:06 10° N 04:45:43 33° WNW 04:50:20 10° SW
Cosmos 1900 4.4 04:40:48 10° SSW 04:45:44 89° WNW 04:50:47 10° NE
Cosmos 1707 Rocket 4.0 04:45:29 10° NNW 04:49:36 42° W 04:53:43 10° SSW
UNKNOWN OBJECT B 3.6 04:48:21 10° N 04:52:09 38° WNW 04:55:52 10° SW
NOSS 7 (H) 4.4 04:50:05 10° SW 04:53:23 71° NW 04:56:52 10° NE
Landsat 4 3.7 04:49:41 10° S 04:53:28 78° WSW 04:57:19 10° NNW
ADEOS II 2.6 04:52:17 10° NNE 04:57:31 62° E 05:02:43 10° S
